#timestamp,LO_Frequency,Hit,StdDev 
1647115215.3,286047011.7,P
1647115235.1,286047010.6,N
1647115255.9,286047009.7,N
1647115275.7,286047008.9,N
1647115295.5,286047005.8,N
1647115315.4,286047004.7,N
1647115335.2,286047004.5,N
1647115355.1,286047013.8,Y
1647115356.0,286047013.8,P
1647115375.8,286047005.3,N
1647115395.6,286047013.5,P
1647115415.5,286047010.0,N
1647115435.3,286047014.8,Y
1647115455.2,286047003.6,P
1647115475.9,286047007.8,N
1647115495.7,286047014.5,P
1647115515.6,286047021.3,Y
1647115535.4,286047017.1,P
1647115555.3,286047013.9,P
1647115575.1,286047016.1,P
1647115576.0,286047016.1,Y
1647115595.8,286047003.5,P
1647115615.7,286047001.5,N
1647115635.5,286047005.9,N
1647115655.3,286047005.6,N
1647115675.2,286047007.7,N
1647115695.0,286047012.4,Y
1647115695.9,286047012.4,P
1647115715.8,286047004.2,N
1647115735.6,286047007.6,N
1647115755.4,286047004.2,N
1647115775.3,286047006.9,N
1647115795.1,286047013.7,Y
1647115815.9,286047012.6,P
1647115835.7,286047024.8,P
1647115855.5,286047032.3,P
1647115875.4,286047040.3,Y
1647115895.2,286047027.6,P
1647115915.0,286047028.8,P
1647115915.9,286047028.8,P
1647115935.8,286047027.2,Y
1647115955.6,286047007.7,P
1647115975.5,286047011.1,N
1647115995.3,286047004.3,N
1647116015.1,286047001.7,N
1647116035.9,286047009.5,N
1647116055.7,286047009.8,N
1647116075.5,286047008.1,N
1647116095.4,286046999.7,N
1647116115.2,286047007.6,N
1647116135.1,286047011.9,N
1647116136.0,286047011.9,N
1647116155.8,286047017.3,N
1647116175.6,286047021.1,Y
1647116195.5,286047015.7,P
1647116215.3,286047026.1,P
1647116235.2,286047030.3,P
1647116255.9,286047033.2,Y
1647116275.7,286047018.8,P
1647116295.6,286047022.1,P
1647116315.4,286047027.9,P
1647116335.2,286047029.3,Y
1647116355.1,286047011.8,P
1647116356.0,286047011.8,N
1647116375.8,286047021.5,P
1647116395.7,286047022.5,Y
1647116415.5,286047012.4,P
1647116435.4,286047008.3,P
1647116455.2,286047008.6,N
1647116475.0,286047004.4,N
1647116475.9,286047004.4,N
1647116495.8,286046998.2,N
1647116515.6,286046997.2,N
1647116535.4,286047002.3,N
1647116555.3,286047004.1,N
1647116575.1,286047003.1,N
1647116595.9,286047009.2,N
1647116615.7,286047009.7,N
1647116635.5,286047018.7,Y
1647116655.4,286047013.3,P
1647116675.2,286047017.2,P
1647116695.0,286047014.0,P
1647116696.0,286047014.0,Y
1647116715.8,286046995.0,P
1647116735.6,286047000.9,N
1647116755.5,286047002.1,N
1647116775.3,286047001.3,N
1647116795.1,286047004.1,N
1647116845.9,286047004.6,E
1647116855.8,286047001.3,N
1647116875.7,286047003.0,P
1647116895.5,286047000.2,N
1647116915.3,286047001.4,N
1647116935.2,286047007.4,Y
1647116955.0,286047006.2,P
1647116955.9,286047006.2,N
1647116975.8,286047008.6,P
1647116995.6,286046995.1,N
1647117015.4,286046987.9,N
1647117035.3,286046983.8,N
1647117055.1,286046988.3,N
1647117075.8,286046989.7,N
1647117095.7,286046988.6,N
1647117115.5,286046995.9,N
1647117135.4,286047000.1,N
1647117155.2,286047002.5,N
1647117175.0,286046999.2,N
1647117175.9,286046999.2,N
1647117195.8,286046998.7,N
1647117215.6,286047002.5,N
1647117235.4,286046998.4,N
1647117255.3,286047004.4,N
1647117275.1,286047002.0,N
1647117295.9,286047007.3,N
1647117315.7,286047011.7,N
1647117335.5,286047016.5,N
1647117355.4,286047017.6,N
1647117375.2,286047019.9,N
1647117395.0,286047026.8,N
1647117396.0,286047026.8,N
1647117415.8,286047028.4,N
1647117435.6,286047031.9,N
1647117455.5,286047034.8,N
1647117475.3,286047036.1,N
1647117495.1,286047036.8,N
1647117515.9,286047038.7,N
1647117535.7,286047036.7,N
1647117555.6,286047042.3,N
1647117575.4,286047043.9,N
1647117595.2,286047044.9,N
1647117615.1,286047041.9,N
1647117616.0,286047041.9,N
1647117635.8,286047044.2,N
1647117655.7,286047047.6,N
1647117675.5,286047045.8,N
1647117695.3,286047051.5,N
1647117715.2,286047055.4,Y
1647117735.0,286047030.7,P
1647117735.9,286047030.7,P
1647117755.8,286047032.7,P
1647117775.6,286047034.9,Y
1647117795.4,286047002.5,P
1647117815.3,286047003.1,N
1647117835.1,286047018.2,N
1647117855.8,286047005.8,N
1647117875.7,286047005.2,N
1647117895.5,286047010.2,N
1647117915.4,286047009.2,N
1647117935.2,286047011.3,N
1647117955.0,286047012.9,N
1647117955.9,286047012.9,N
1647117975.8,286047015.7,N
1647117995.6,286047025.9,Y
1647118015.4,286047014.4,P
1647118035.3,286047021.8,P
1647118055.1,286047011.1,N
1647118075.9,286047003.1,N
1647118095.7,286047002.2,N
1647118115.5,286047007.5,N
1647118135.4,286047004.5,N
1647118155.2,286047003.2,N
1647118175.0,286047004.0,N
1647118175.9,286047004.0,N
1647118195.8,286046999.1,N
1647118215.6,286047006.5,N
1647118235.5,286047014.8,N
1647118255.3,286047021.5,Y
1647118275.1,286047018.4,P
1647118295.9,286047020.2,P
1647118315.7,286047025.2,P
1647118335.5,286047024.5,Y
1647118355.4,286047008.4,P
1647118375.2,286047006.4,N
1647118395.1,286047003.1,N
1647118396.0,286047003.1,N
1647118415.8,286047000.9,N
1647118435.6,286046998.9,N
1647118455.5,286046994.6,N
1647118475.3,286046984.9,N
1647118495.2,286046973.6,Y
1647118515.9,286046952.5,P
1647118535.7,286046949.1,N
1647118555.6,286046949.3,N
1647118575.4,286046947.7,N
1647118595.2,286046950.4,N
1647118615.1,286046954.4,N
1647118616.0,286046954.4,N
1647118635.8,286046954.0,N
1647118655.7,286046956.5,N
1647118675.5,286046964.2,N
1647118695.3,286046964.6,N
1647118715.2,286046967.2,N
1647118735.0,286046964.0,N
1647118735.9,286046964.0,N
1647118755.7,286046961.9,N
1647118775.6,286046963.8,N
1647118795.4,286046960.6,Y
